N410TW SEGU-SEGU

Flight info

Callsign N410TW
Flight time 0h 17m
Altitude 1000
Route DCT GYV/A030N0120 IFR DCT
Aircraft COL4/L-SDEG/C

Departure

Time 2026-04-27 00:52
Airport José Joaquín de Olmedo International Airport (SEGU)

Arrival

Time 2026-04-27 01:10
Airport José Joaquín de Olmedo International Airport (SEGU)
Time Latitude Longitude Altitude Speed Heading
2026-04-27 00:38 -2.16065 -79.88810 18 ft 0 kts 26°
2026-04-27 00:41 -2.16064 -79.88806 18 ft 1 kts 110°
2026-04-27 00:42 -2.16087 -79.88793 18 ft 6 kts 142°
2026-04-27 00:42 -2.16105 -79.88769 18 ft 3 kts 97°
2026-04-27 00:42 -2.16113 -79.88748 18 ft 6 kts 112°
2026-04-27 00:42 -2.16131 -79.88703 18 ft 11 kts 55°
2026-04-27 00:43 -2.16050 -79.88649 18 ft 16 kts 27°
2026-04-27 00:43 -2.15926 -79.88580 17 ft 25 kts 27°
2026-04-27 00:43 -2.15756 -79.88483 17 ft 32 kts 35°
2026-04-27 00:43 -2.15574 -79.88376 16 ft 26 kts 31°
2026-04-27 00:44 -2.15434 -79.88298 16 ft 21 kts 32°
2026-04-27 00:44 -2.15315 -79.88230 16 ft 19 kts 20°
2026-04-27 00:44 -2.15285 -79.88208 16 ft 0 kts 58°
2026-04-27 00:49 -2.15295 -79.88167 16 ft 13 kts 112°
2026-04-27 00:49 -2.15352 -79.88137 16 ft 4 kts 262°
2026-04-27 00:50 -2.15368 -79.88148 16 ft 2 kts 212°
2026-04-27 00:50 -2.15372 -79.88151 16 ft 0 kts 211°
2026-04-27 00:51 -2.15379 -79.88155 16 ft 13 kts 207°
2026-04-27 00:51 -2.15655 -79.88313 15 ft 77 kts 210°
2026-04-27 00:51 -2.16238 -79.88660 225 ft 99 kts 216°
2026-04-27 00:52 -2.16861 -79.89024 449 ft 112 kts 210°
2026-04-27 00:52 -2.17534 -79.89284 986 ft 92 kts 185°
2026-04-27 00:52 -2.18182 -79.88940 1037 ft 127 kts 134°
2026-04-27 00:52 -2.18525 -79.88066 1023 ft 147 kts 97°
2026-04-27 00:53 -2.17970 -79.87217 1021 ft 154 kts 27°
2026-04-27 00:53 -2.16998 -79.86734 994 ft 158 kts 27°
2026-04-27 00:53 -2.16064 -79.86104 859 ft 166 kts 37°
2026-04-27 00:53 -2.15165 -79.85426 900 ft 159 kts 24°
2026-04-27 00:54 -2.14128 -79.85480 795 ft 147 kts 327°
2026-04-27 00:54 -2.13450 -79.86103 765 ft 125 kts 304°
2026-04-27 00:54 -2.13297 -79.86917 559 ft 124 kts 251°
2026-04-27 00:54 -2.13981 -79.87396 256 ft 128 kts 204°
2026-04-27 00:55 -2.14764 -79.87808 46 ft 124 kts 207°
2026-04-27 00:55 -2.15461 -79.88208 19 ft 109 kts 208°
2026-04-27 00:55 -2.16091 -79.88556 67 ft 100 kts 207°
2026-04-27 00:55 -2.16683 -79.88836 474 ft 105 kts 194°
2026-04-27 00:56 -2.17458 -79.89126 621 ft 129 kts 207°
2026-04-27 00:56 -2.18291 -79.89532 882 ft 134 kts 209°
2026-04-27 00:56 -2.19112 -79.90005 1153 ft 137 kts 218°
2026-04-27 00:56 -2.19455 -79.90874 1430 ft 144 kts 273°
2026-04-27 00:57 -2.18893 -79.91707 1714 ft 155 kts 324°
2026-04-27 00:57 -2.17830 -79.91823 1993 ft 164 kts 16°
2026-04-27 00:57 -2.16949 -79.91139 2275 ft 161 kts 47°
2026-04-27 00:57 -2.16165 -79.90335 2572 ft 163 kts 47°
2026-04-27 00:58 -2.15365 -79.89534 2864 ft 163 kts 47°
2026-04-27 00:58 -2.14551 -79.88717 3002 ft 172 kts 46°
2026-04-27 00:58 -2.13683 -79.87830 3009 ft 183 kts 49°
2026-04-27 00:58 -2.12785 -79.86886 3012 ft 190 kts 48°
2026-04-27 00:59 -2.11856 -79.85926 3009 ft 194 kts 46°
2026-04-27 00:59 -2.10920 -79.84955 3008 ft 194 kts 47°
2026-04-27 00:59 -2.09988 -79.83985 3013 ft 191 kts 48°
2026-04-27 00:59 -2.09091 -79.83050 3011 ft 187 kts 49°
2026-04-27 01:00 -2.08218 -79.82092 3013 ft 186 kts 50°
2026-04-27 01:00 -2.07356 -79.81135 3011 ft 184 kts 49°
2026-04-27 01:00 -2.06506 -79.80180 3009 ft 184 kts 49°
2026-04-27 01:00 -2.05647 -79.79225 3001 ft 184 kts 48°
2026-04-27 01:01 -2.04824 -79.78251 3003 ft 183 kts 49°
2026-04-27 01:01 -2.04003 -79.77274 2937 ft 185 kts 50°
2026-04-27 01:01 -2.03162 -79.76344 2687 ft 176 kts 38°
2026-04-27 01:01 -2.02036 -79.76025 2424 ft 172 kts 354°
2026-04-27 01:02 -2.01002 -79.76542 2167 ft 168 kts 311°
2026-04-27 01:02 -2.00379 -79.77484 2111 ft 156 kts 301°
2026-04-27 01:02 -1.99852 -79.78393 2082 ft 147 kts 294°
2026-04-27 01:02 -1.99523 -79.79329 2028 ft 143 kts 265°
2026-04-27 01:03 -2.00009 -79.80117 1999 ft 134 kts 209°
2026-04-27 01:03 -2.00909 -79.80233 1996 ft 129 kts 187°
2026-04-27 01:03 -2.01712 -79.80556 2000 ft 124 kts 203°
2026-04-27 01:03 -2.02524 -79.80838 1998 ft 127 kts 201°
2026-04-27 01:04 -2.03317 -79.81220 2006 ft 125 kts 210°
2026-04-27 01:04 -2.04072 -79.81650 2008 ft 125 kts 210°
2026-04-27 01:04 -2.04822 -79.82091 2007 ft 125 kts 210°
2026-04-27 01:04 -2.05577 -79.82519 1987 ft 125 kts 208°
2026-04-27 01:05 -2.06305 -79.82920 1855 ft 116 kts 210°
2026-04-27 01:05 -2.06993 -79.83303 1711 ft 111 kts 210°
2026-04-27 01:05 -2.07646 -79.83681 1575 ft 106 kts 212°
2026-04-27 01:05 -2.08267 -79.84039 1435 ft 100 kts 212°
2026-04-27 01:06 -2.08850 -79.84377 1314 ft 94 kts 211°
2026-04-27 01:06 -2.09405 -79.84698 1190 ft 91 kts 212°
2026-04-27 01:06 -2.09946 -79.85012 1076 ft 88 kts 212°
2026-04-27 01:06 -2.10442 -79.85298 980 ft 77 kts 212°
2026-04-27 01:07 -2.10928 -79.85583 885 ft 84 kts 212°
2026-04-27 01:07 -2.11451 -79.85885 799 ft 86 kts 211°
2026-04-27 01:07 -2.11964 -79.86181 692 ft 84 kts 211°
2026-04-27 01:07 -2.12419 -79.86444 614 ft 72 kts 209°
2026-04-27 01:08 -2.12859 -79.86696 514 ft 74 kts 211°
2026-04-27 01:08 -2.13305 -79.86956 416 ft 74 kts 210°
2026-04-27 01:08 -2.13753 -79.87217 315 ft 75 kts 210°
2026-04-27 01:08 -2.14206 -79.87478 197 ft 75 kts 209°
2026-04-27 01:09 -2.14648 -79.87739 109 ft 71 kts 209°
2026-04-27 01:09 -2.15074 -79.87982 26 ft 69 kts 208°
2026-04-27 01:09 -2.15465 -79.88214 19 ft 64 kts 211°
2026-04-27 01:09 -2.15836 -79.88422 16 ft 57 kts 209°
2026-04-27 01:10 -2.16015 -79.88535 17 ft 12 kts 242°
2026-04-27 01:10 -2.16005 -79.88602 17 ft 9 kts 303°
2026-04-27 01:10 -2.16044 -79.88648 18 ft 14 kts 207°
2026-04-27 01:10 -2.16142 -79.88709 18 ft 11 kts 256°
2026-04-27 01:11 -2.16105 -79.88785 18 ft 15 kts 303°